Location: Dlouhé Pole
(49.7830°N, 14.7354°E)
Time: 09:49:47
(UTC+00:00)

Daily predictions for brighter satellites

Satellite Brightness Start Highest point End
(mag) Time Altitude Azimuth Time Altitude Azimuth Time Altitude Azimuth
ATLAS CENTAUR R/B 3.6 18:28:38 10° N 18:30:23 13° NNE 18:32:10 10° NE
CSL-04 Debris 4.3 18:26:12 10° SSE 18:31:36 68° ENE 18:37:03 10° N
Cosmos 1346 Rocket 3.4 18:28:33 10° SSW 18:32:19 60° WNW 18:36:07 10° N
ATLAS 3B R/B 3.1 18:29:37 10° SSW 18:36:21 50° ESE 18:43:35 10° NE
Cosmos 371 Rocket 3.8 18:32:54 10° NNW 18:37:29 43° ENE 18:42:02 10° SE
SL-4 R/B 2.0 18:35:16 10° W 18:38:57 63° N 18:42:25 10° E
COSMOS 2455 3.9 18:33:28 10° NNW 18:38:57 34° NE 18:44:25 10° ESE
CSL-04 Rocket 3.7 18:34:36 10° SSE 18:40:05 74° ENE 18:45:32 10° NNW
SJ-6B 3.9 18:37:08 10° S 18:40:59 48° W 18:44:51 10° NNW
Cosmos 304 Rocket 4.5 18:36:59 10° NNW 18:41:29 39° ENE 18:45:55 10° SE
In-Cosmos 22 Rocket 4.3 18:38:19 10° NNW 18:43:45 81° W 18:49:19 10° S
Cosmos 2181 Rocket 4.2 18:40:28 10° SSW 18:46:40 81° W 18:53:01 10° N
Okean 2 Rocket 3.9 18:43:27 10° SSE 18:47:23 31° E 18:51:20 10° NNE
MOS 1-B 4.5 18:43:16 10° SSE 18:49:04 85° WSW 18:54:55 10° NNW
Cosmos 1992 Rocket 4.0 18:44:14 10° SSW 18:49:27 89° ESE 18:54:43 10° NNE
CZ-4C R/B 3.7 18:43:27 10° NW 18:49:36 40° NNE 18:57:05 10° E
SPOT 5 3.9 18:47:10 10° SE 18:51:57 35° ENE 18:56:40 10° N
Cosmos 2297 Rocket 2.9 18:48:34 10° NNW 18:53:54 40° NE 18:58:46 12° ESE
Cosmos 1503 Rocket 4.1 18:52:30 10° NNW 18:57:53 68° ENE 19:03:14 10° SSE
Cosmos 2369 Rocket 3.8 18:52:57 10° WSW 18:58:15 39° NW 19:03:33 10° NNE
Cosmos 1354 Rocket 4.3 18:55:30 10° NNW 19:00:46 56° ENE 19:05:35 12° SE
Cosmos 1656 4.4 18:56:32 10° SSE 19:01:17 30° ESE 19:06:01 10° NE
BlueWalker 3 2.8 18:58:37 10° SSW 19:01:56 29° SE 19:05:17 10° E
Terra 3.1 19:01:25 13° ESE 19:04:39 24° ENE 19:08:26 10° N
ATLAS 5 CENTAUR R/B 1.2 19:02:52 10° SW 19:06:13 74° NW 19:10:02 10° NE
PSLV R/B 4.3 19:04:18 10° S 19:07:57 59° WSW 19:11:43 10° NNW
Cosmos 2098 Rocket 3.4 19:03:52 10° SSW 19:08:32 65° W 19:12:20 10° N
CARTOSAT-1 3.8 19:04:24 10° S 19:08:39 71° WSW 19:12:57 10° NNW
Iridium 4 Rocket 4.3 19:04:33 10° SSE 19:09:39 39° E 19:15:00 10° NNE
Sich 1 Rocket 3.8 19:06:35 10° S 19:10:51 51° E 19:15:12 10° NNE
Okean 1 Rocket 3.8 19:06:57 10° SSE 19:10:54 33° E 19:14:55 10° NNE
Okean-O 2.6 19:11:15 10° SSE 19:15:39 79° ENE 19:20:04 10° NNW
CZ-4B R/B 4.4 19:12:33 10° S 19:17:55 44° W 19:23:15 10° NNW
Ariane Rocket 3.9 19:16:23 16° ESE 19:19:36 32° ENE 19:24:03 10° N
Cosmos 2263 Rocket 4.0 19:16:10 10° N 19:20:11 19° NE 19:24:10 10° E
CZ-4C R/B 2.9 19:17:40 10° NNE 19:21:03 57° ESE 19:24:21 10° S
Nadezhda 3 Rocket 4.0 19:16:41 10° S 19:22:49 90° E 19:29:04 10° N
Cosmos 1437 Rocket 4.2 19:20:49 10° NNE 19:24:00 23° ENE 19:25:29 19° E
USA 186 4.2 19:22:11 10° SW 19:24:33 21° W 19:26:55 10° NW
Genesis I 3.0 19:21:03 10° NW 19:24:41 81° SW 19:26:55 22° SE
USA 267 3.5 19:18:59 10° ENE 19:25:32 74° NNW 19:32:03 10° WSW
Cosmos 44 4.1 19:20:59 10° S 19:25:47 34° ESE 19:30:33 10° NE
BREEZE-M R/B 1.8 19:24:19 10° W 19:26:48 58° SSW 19:27:40 33° SE
Cosmos 1605 Rocket 4.3 19:23:40 10° N 19:29:56 52° ENE 19:34:28 18° SE
Okean O Rocket 2.8 19:26:29 10° SSW 19:30:35 40° W 19:34:44 10° NNW
Aureole 1 Rocket 3.8 19:31:28 10° N 19:33:48 20° NE 19:34:29 19° ENE
CZ-4 R/B 4.2 19:33:44 10° SW 19:35:58 15° W 19:38:13 10° NW
Cosmos 1536 Rocket 3.9 19:37:21 10° NNW 19:41:45 64° W 19:45:49 12° S
Resurs 01 Rocket 3.4 19:41:37 10° SSW 19:45:28 29° W 19:49:21 10° NNW
IRS-1C Rocket 4.1 19:42:38 17° SSE 19:46:46 87° WSW 19:52:05 10° NNW
MOS 1 Rocket 4.3 19:46:11 23° E 19:47:36 28° ENE 19:51:22 10° N
Cosmos 2058 4.0 19:46:21 10° NNE 19:49:46 26° ENE 19:50:33 24° E
CENTAUR R/B 3.7 19:43:17 10° NW 19:50:53 51° NNE 19:57:39 18° ESE
NOSS 3-1 (A) 3.4 19:47:48 10° SW 19:52:51 73° NW 19:59:04 10° NE
ERS-1 Rocket 2.9 19:51:26 25° SSE 19:54:21 74° ENE 19:59:22 10° N
SPOT 3 Rocket 3.7 19:55:09 28° SE 19:57:44 58° ENE 20:02:50 10° N
Cosmos 1934 Rocket 4.3 19:54:30 10° NNW 20:00:36 65° W 20:06:25 12° S
USA 229 DEB 3.5 19:55:41 10° SSW 20:01:40 59° SE 20:08:18 10° NE
USA 229 3.5 19:55:47 10° SSW 20:01:46 59° SE 20:08:24 10° NE
USA 234 4.4 19:58:35 15° S 20:03:12 32° SW 20:08:58 10° WNW
USA 281 4.0 19:59:02 11° S 20:05:01 46° WSW 20:11:19 10° NW
Landsat 5 4.2 20:03:12 10° NNE 20:06:58 32° E 20:06:58 32° E
Cosmos 1727 Rocket 4.4 20:04:27 29° SE 20:07:05 43° E 20:12:56 10° NNE
ATLAS CENTAUR R/B 1.8 20:05:24 10° NNW 20:09:02 45° NE 20:09:58 37° E
Cosmos 2227 Rocket 2.2 20:04:06 10° NNW 20:09:48 73° ENE 20:12:21 34° SE
Cosmos 1980 Rocket 3.5 20:13:33 22° E 20:13:33 22° E 20:17:07 10° NE
Cosmos 1892 Rocket 3.4 20:12:25 10° N 20:16:47 88° E 20:18:10 43° S
Cosmos 292 Rocket 4.3 20:12:38 10° NNW 20:17:11 44° ENE 20:18:28 36° E
SL-4 R/B 1.4 20:14:16 10° WNW 20:17:49 73° SSW 20:17:57 71° S
Landsat 4 4.4 20:17:01 30° SSW 20:18:17 43° W 20:21:41 10° NNW
Cosmos 1697 Rocket 2.8 20:18:57 32° SSE 20:21:17 51° ESE 20:26:47 10° NE
Cosmos 1937 Rocket 4.2 20:16:54 10° NNW 20:21:59 43° ENE 20:23:39 33° ESE
Cosmos 2360 4.1 20:17:18 13° SSW 20:22:26 69° ESE 20:28:07 10° NNE
COSMOS 2455 3.0 20:19:19 10° NW 20:25:19 66° WSW 20:27:59 34° S
ATLAS 3B R/B 3.6 20:20:03 10° WSW 20:27:09 55° NW 20:34:43 10° NE
SPOT 5 4.1 20:26:04 16° SSW 20:29:54 41° W 20:34:50 10° NNW
MetOp-A 3.2 20:30:40 61° E 20:30:53 62° ENE 20:34:39 10° N
Cosmos 405 Rocket 2.6 20:33:26 60° SW 20:34:02 77° W 20:37:47 10° N
Cosmos 1898 Rocket 3.5 20:29:26 10° NNW 20:34:42 70° ENE 20:36:04 48° SE
Cosmos 1758 Rocket 4.5 20:30:44 10° N 20:34:49 34° ENE 20:35:01 34° ENE
Cosmos 2228 4.3 20:38:16 25° ENE 20:38:16 25° ENE 20:40:56 10° NNE
Cosmos 2297 Rocket 3.1 20:32:41 10° NW 20:37:59 42° WSW 20:40:35 26° SSW
Spot 2 Rocket 3.8 20:36:25 34° SSW 20:38:29 62° W 20:43:30 10° NNW
CZ-4C R/B 3.0 20:31:42 10° NW 20:38:45 82° SW 20:42:37 36° SSE
BlueWalker 3 1.9 20:36:07 10° WSW 20:39:56 78° NNW 20:40:37 57° NE
ARIANE 5 R/B 3.8 20:39:49 29° ENE 20:40:12 30° ENE 20:44:07 10° N
USA 81 3.9 20:38:46 47° SSE 20:40:15 73° E 20:45:31 10° N
Terra 2.4 20:40:08 32° SSW 20:41:58 50° W 20:46:36 10° NNW
Cosmos 1656 4.4 20:39:16 10° SW 20:44:40 52° NW 20:50:04 10° NNE
Meteor 2-13 Rocket 4.5 20:43:00 43° SSE 20:44:50 61° E 20:50:54 10° NNE
Meteor 2-1 Rocket 4.2 20:45:49 50° SE 20:46:49 59° E 20:52:14 10° NNE
Spot 1 4.1 20:43:16 10° NNE 20:47:59 85° WNW 20:49:02 53° SSW
Cosmos 1455 Rocket 3.4 20:46:45 39° SW 20:48:14 64° WNW 20:52:36 10° N
Cosmos 1725 Rocket 4.4 20:43:04 10° N 20:49:01 46° ENE 20:50:29 39° ESE
Cosmos 1459 Rocket 3.9 20:44:20 10° N 20:50:24 69° ENE 20:52:04 48° SE
ATLAS 5 CENTAUR R/B 4.1 20:48:19 10° WNW 20:50:53 18° NNW 20:53:45 10° NNE
Cosmos 2219 3.1 20:47:31 10° NNW 20:53:13 87° ENE 20:54:33 55° SSE
Ariane Rocket 3.9 20:56:30 29° SW 20:58:25 41° W 21:03:13 10° NNW
Cosmos 1437 Rocket 4.0 20:56:14 10° NNW 20:59:49 34° W 21:00:22 33° WSW
Cosmos 1763 Rocket 3.9 20:57:45 18° SW 21:01:26 59° WNW 21:06:32 10° NNE
Cosmos 858 Rocket 4.5 20:56:49 10° NNW 21:02:07 70° ENE 21:02:52 60° ESE
Cosmos 2263 Rocket 2.1 20:59:27 10° NNW 21:05:06 75° ENE 21:06:06 59° ESE
Cosmos 44 4.2 21:01:32 10° WSW 21:06:50 54° NW 21:12:02 10° NE
USA 267 4.1 21:01:54 10° ENE 21:08:09 49° N 21:14:23 10° WNW
Cosmos 2082 3.6 21:05:53 10° NNW 21:11:35 82° ENE 21:12:29 64° SE
Cosmos 2173 Rocket 4.0 21:08:49 10° NNW 21:15:13 79° W 21:17:01 50° S
NOSS 3-2 (A) 4.0 21:09:34 10° NW 21:16:49 80° NE 21:19:58 43° SE
Meteor 2-3 Rocket 3.6 21:13:04 10° NNW 21:18:47 90° WSW 21:19:41 65° S
Cosmos 2322 Rocket 4.5 21:22:13 10° ENE 21:22:13 10° ENE 21:22:23 10° ENE
Cosmos 540 Rocket 4.0 21:18:45 29° SW 21:21:11 55° WNW 21:26:14 10° NNE
Cosmos 1606 3.9 21:23:39 37° N 21:23:39 37° N 21:25:57 10° N
MOS 1 Rocket 4.2 21:25:21 34° WSW 21:25:41 34° W 21:29:42 10° NNW
Cosmos 2058 4.2 21:22:49 10° NNW 21:26:23 31° W 21:26:27 31° W
Meteor 2-15 4.4 21:22:37 10° NNW 21:28:46 77° W 21:29:59 58° SSW
Cosmos 1626 Rocket 4.1 21:24:52 10° NNW 21:29:05 50° W 21:29:05 50° W
Cosmos 372 Rocket 4.3 21:26:42 10° NNW 21:31:47 52° WSW 21:32:09 51° WSW
Meteor 2-15 Rocket 4.3 21:25:54 10° N 21:32:06 87° E 21:33:02 66° SSE
Cosmos 1864 Rocket 4.4 21:28:28 10° N 21:34:40 83° W 21:35:41 64° S
Cosmos 1802 Rocket 4.1 21:31:27 10° NNW 21:37:42 73° W 21:38:59 56° SSW
SL-16 R/B 3.7 21:41:08 23° ENE 21:41:08 23° ENE 21:44:11 10° NE
CENTAUR R/B 3.3 21:33:59 10° NW 21:42:10 68° SW 21:44:48 49° S
Cosmos 1869 4.4 21:43:57 40° NW 21:43:57 40° NW 21:46:52 10° N
Cosmos 841 Rocket 3.5 21:43:35 71° W 21:43:54 74° WNW 21:49:04 10° NNE
Cosmos 2016 Rocket 3.9 21:38:53 10° NNW 21:45:00 75° W 21:45:55 63° SSW
ATLAS CENTAUR R/B 3.4 21:43:30 10° WNW 21:45:04 19° W 21:45:04 19° W
Cosmos 1844 Rocket 3.4 21:44:14 10° NNW 21:49:34 41° NE 21:50:30 38° ENE
Cosmos 1125 Rocket 4.4 21:46:16 10° NNW 21:51:09 38° ENE 21:51:35 37° ENE
H-2A R/B 3.6 21:54:16 38° NNW 21:54:16 38° NNW 21:56:44 10° NNW
Cosmos 2227 Rocket 3.9 21:49:05 10° NW 21:53:16 21° W 21:54:10 21° WSW
Cosmos 1980 Rocket 2.4 21:55:14 55° WSW 21:56:17 69° WNW 22:01:57 10° NNE
Cosmos 967 Rocket 4.4 21:53:52 10° NW 22:00:19 69° WSW 22:00:44 67° SSW
Cosmos 2278 4.3 22:02:49 45° ENE 22:02:49 45° ENE 22:07:16 10° NE
Cosmos 1697 Rocket 4.1 22:00:32 11° WSW 22:05:29 34° NW 22:10:39 10° NNE
Cosmos 2123 Rocket 4.4 22:05:45 47° SW 22:07:15 59° WNW 22:13:31 10° N
Cosmos 2151 4.0 22:03:37 10° N 22:06:35 42° NNE 22:06:35 42° NNE
Meteor 1-27 4.2 22:10:41 74° W 22:10:51 74° WNW 22:16:27 10° N
CZ-2C R/B 4.3 22:06:14 10° N 22:10:47 54° WNW 22:10:47 54° WNW
Cosmos 2228 4.5 22:14:51 31° WNW 22:14:51 31° WNW 22:18:20 10° N
ARIANE 5 R/B 3.9 22:17:17 34° WNW 22:17:17 34° WNW 22:20:42 10° NNW
CZ-4C R/B 4.3 22:20:57 10° WNW 22:26:47 25° WSW 22:27:43 24° WSW
Cosmos 2227 4.3 22:22:26 10° NNW 22:27:45 67° W 22:27:45 67° W
Cosmos 2237 4.5 22:29:24 58° ENE 22:29:24 58° ENE 22:34:15 10° NE
Cosmos 2369 4.3 22:27:50 44° W 22:29:01 51° NW 22:34:34 10° NNE
Lacrosse 4 Rocket 3.1 22:33:41 29° NNE 22:33:41 29° NNE 22:35:46 10° NNE
H-2A R/B 3.6 22:28:29 10° NNE 22:30:48 29° NE 22:30:48 29° NE
NOSS 3-2 (C) 3.9 22:25:37 10° NW 22:32:59 79° SW 22:34:32 62° SSE
ALOS 2 3.6 22:35:57 45° NW 22:35:57 45° NW 22:39:06 10° NNW
Cosmos 2233 Rocket 4.4 22:28:56 10° NNW 22:34:50 49° W 22:35:19 48° WSW
Cosmos 1447 Rocket 4.4 22:42:34 70° WSW 22:42:58 72° W 22:49:08 10° N
Cosmos 1464 Rocket 4.0 22:38:10 10° N 22:44:34 73° ENE 22:44:59 70° ESE
Cosmos 1814 Rocket 4.3 22:45:04 61° NW 22:45:04 61° NW 22:49:54 10° NNE
Cosmos 2058 Rocket 4.1 22:47:28 43° N 22:47:28 43° N 22:50:26 10° N
Cosmos 2263 Rocket 3.9 22:44:24 10° NW 22:47:47 20° W 22:47:47 20° W
Cosmos 2360 Rocket 3.0 22:51:06 40° E 22:51:06 40° E 22:55:24 10° NE
USA 267 3.9 22:44:14 10° E 22:50:35 55° NNE 22:56:57 10° WNW
Meteor 2-21 4.4 22:58:06 74° ESE 22:58:11 74° E 23:04:24 10° NNE
Cosmos 1891 Rocket 4.5 22:53:00 10° NNW 22:59:08 69° W 22:59:17 68° WSW
Meteor 1-20 Rocket 4.2 22:53:43 10° NNW 22:59:08 81° NNE 22:59:08 81° NNE
Cosmos 1513 Rocket 4.4 22:53:30 10° NNW 22:59:35 73° W 22:59:38 73° W
Cosmos 1570 Rocket 4.2 23:02:43 65° NNE 23:02:43 65° NNE 23:07:10 10° NNE
Cosmos 2333 Rocket 2.9 23:03:47 44° E 23:03:47 44° E 23:08:17 10° NE
Cosmos 2322 Rocket 2.4 23:03:59 64° ENE 23:03:59 64° ENE 23:08:54 10° NNE
Cosmos 2278 Rocket 4.3 22:59:20 10° N 23:03:43 22° NE 23:08:04 10° E
Lacrosse 5 3.1 23:05:57 33° ENE 23:05:57 33° ENE 23:08:49 10° ENE
Cosmos 2219 Rocket 3.4 23:05:42 29° E 23:05:42 29° E 23:09:36 10° NE
Cosmos 2034 Rocket 3.9 23:00:30 10° N 23:06:42 72° ENE 23:07:00 71° ESE
Meteor 1-25 Rocket 4.2 23:05:44 10° NNW 23:11:03 80° N 23:11:03 80° N
Geosat 4.2 23:20:32 67° NE 23:20:32 67° NE 23:25:17 10° NNW
SL-16 R/B 2.5 23:22:57 59° WNW 23:23:14 60° WNW 23:28:52 10° NNE
Cosmos 1844 4.3 23:18:49 10° NW 23:23:28 48° WNW 23:23:28 48° WNW
Cosmos 1634 Rocket 4.3 23:21:21 10° N 23:27:36 57° ENE 23:28:38 51° ESE
USA 238 DEB 3.9 23:25:26 10° NW 23:32:38 61° SW 23:32:58 61° SW
USA 238 3.9 23:25:31 10° NW 23:32:45 62° SW 23:33:06 61° SW
Cosmos 1844 Rocket 3.7 23:28:16 10° NW 23:32:08 34° WNW 23:32:08 34° WNW
IDEFIX/ARIANE 42P 4.5 23:35:34 10° NE 23:39:08 18° E 23:39:49 18° E
Resurs 1-4 Rocket 4.2 23:36:18 10° NE 23:39:25 16° E 23:40:30 15° ESE
Cosmos 158 Rocket 4.1 23:41:25 64° N 23:41:25 64° N 23:45:47 10° NNE
Cosmos 1943 Rocket 4.3 23:36:45 10° NNW 23:41:16 24° NE 23:45:48 10° E
Cosmos 1980 Rocket 4.5 23:37:32 10° W 23:41:23 18° NW 23:45:17 10° N
Timation 2 Rocket 4.4 23:42:34 10° NW 23:48:19 48° W 23:48:19 48° W
Meteor 2-2 Rocket 4.2 23:48:58 78° W 23:49:07 79° WNW 23:55:07 10° N
Cosmos 1766 Rocket 4.4 23:47:52 10° N 23:51:19 48° NNE 23:51:19 48° NNE
Cosmos 1743 4.4 23:51:13 10° N 23:53:28 30° NNE 23:53:28 30° NNE
